Tracking 18980 objects as of 22-Feb-2018
HD Live streaming from Space Station
objects crossing your sky now

BREEZE-M DEB (TANK)

Track BREEZE-M DEB (TANK) now!
10-day predictions


NORAD ID: 31103
Int'l Code: 2007-009B
Perigee: 304.4 km
Apogee: 16,823.8 km
Inclination: 49.4 °
Period: 302.7 minutes
Semi major axis: 14935 km
RCS: 7.0331 m2 (large)
Launch date: April 9, 2007
Source: Commonwealth of Independent States (former USSR) (CIS)
Launch site: TYURATAM MISSILE AND SPACE COMPLEX (TTMTR)

Note: This is SATELLITE DEBRIS
aabbcc
Your satellite tracking list
Your tracking list is empty




NASA's NSSDC Master Catalog

Two Line Element Set (TLE):
1 31103U 07009B   18052.25429276 +.00000799 +00000-0 +16694-3 0  9991
2 31103 049.4444 075.3351 5530387 088.9278 330.6907 04.75652605184591
Source of the keplerian elements: AFSPC